TimePST,TemperatureF,Dew PointF,Humidity,Sea Level PressureIn,VisibilityMPH,Wind Direction,Wind SpeedMPH,Gust SpeedMPH,PrecipitationIn,Events,Conditions,WindDirDegrees,DateUTC
12:56 AM,36.0,36.0,100,30.04,10.0,Variable,4.6,-,N/A,,Clear,0,2013-02-20 08:56:00
1:56 AM,41.0,36.0,82,30.06,10.0,NNE,8.1,-,N/A,,Clear,20,2013-02-20 09:56:00
2:56 AM,38.8,36.0,89,30.06,10.0,NNE,3.5,-,N/A,,Clear,20,2013-02-20 10:56:00
7:56 AM,37.9,36.0,93,30.13,10.0,NNE,5.8,-,N/A,,Clear,30,2013-02-20 15:56:00
8:56 AM,43.0,34.9,73,30.14,10.0,NE,9.2,-,N/A,,Clear,40,2013-02-20 16:56:00
9:56 AM,45.0,37.9,76,30.15,10.0,West,5.8,-,N/A,,Clear,280,2013-02-20 17:56:00
10:56 AM,46.9,36.9,68,30.16,9.0,Calm,Calm,-,N/A,,Clear,0,2013-02-20 18:56:00
12:56 PM,46.9,36.9,68,30.15,10.0,NW,6.9,-,N/A,,Mostly Cloudy,320,2013-02-20 20:56:00
1:56 PM,47.8,38.8,71,30.13,10.0,NW,11.5,-,N/A,,Mostly Cloudy,310,2013-02-20 21:56:00
2:56 PM,45.9,39.9,80,30.13,10.0,NW,11.5,-,N/A,,Mostly Cloudy,320,2013-02-20 22:56:00
3:56 PM,45.9,41.9,86,30.13,10.0,NNW,8.1,-,N/A,,Mostly Cloudy,330,2013-02-20 23:56:00
4:56 PM,45.0,41.9,89,30.13,10.0,NNW,8.1,-,N/A,,Overcast,340,2013-02-21 00:56:00
5:56 PM,43.9,41.0,90,30.13,10.0,NNW,4.6,-,N/A,,Overcast,330,2013-02-21 01:56:00
6:56 PM,43.9,41.0,90,30.14,10.0,North,3.5,-,N/A,,Overcast,350,2013-02-21 02:56:00
7:56 PM,41.9,41.9,100,30.15,5.0,NW,4.6,-,0.00,Rain,Light Rain,320,2013-02-21 03:56:00
8:04 PM,42.8,42.8,100,30.14,4.0,NW,3.5,-,0.00,Rain,Light Rain,320,2013-02-21 04:04:00
8:12 PM,42.8,42.8,100,30.14,5.0,NNW,4.6,-,0.00,Rain,Light Rain,330,2013-02-21 04:12:00
8:46 PM,42.8,42.8,100,30.16,4.0,NNW,6.9,-,0.00,Rain,Light Rain,330,2013-02-21 04:46:00
8:56 PM,41.0,41.0,100,30.17,2.5,Variable,3.5,-,0.00,Rain,Light Rain,0,2013-02-21 04:56:00
9:05 PM,41.0,41.0,100,30.16,4.0,Calm,Calm,-,0.00,Rain,Light Rain,0,2013-02-21 05:05:00
9:13 PM,41.0,41.0,100,-9999,2.5,North,-9999.0,-,0.01,Rain,Light Rain,0,2013-02-21 05:13:00
9:16 PM,41.0,41.0,100,-9999,-9999.0,North,-9999.0,-,N/A,,Unknown,0,2013-02-21 05:16:00
9:56 PM,39.9,39.9,100,30.17,3.0,Calm,Calm,-,N/A,Rain,Rain,0,2013-02-21 05:56:00
10:04 PM,39.2,39.2,100,30.16,6.0,Calm,Calm,-,0.00,Rain,Light Rain,0,2013-02-21 06:04:00
10:56 PM,39.9,39.9,100,30.18,9.0,Calm,Calm,-,0.01,,Overcast,0,2013-02-21 06:56:00
11:03 PM,39.2,39.2,100,30.17,2.5,NE,3.5,-,N/A,,Overcast,40,2013-02-21 07:03:00
11:07 PM,39.2,39.2,100,30.17,3.0,East,3.5,-,N/A,,Overcast,80,2013-02-21 07:07:00
11:46 PM,39.2,39.2,100,30.17,10.0,NNE,3.5,-,N/A,,Scattered Clouds,30,2013-02-21 07:46:00
11:56 PM,37.9,37.9,100,30.18,10.0,NNE,3.5,-,N/A,,Clear,20,2013-02-21 07:56:00